SAS415 EDDB-ESMS

Flight info

Callsign SAS415
Flight time 0h 39m
Altitude 28000
Route GERGA4N/24L GERGA M725 RAKIT Z136 ADEPO Z14 BEBEB DCT BAKLI
Aircraft A320/M-SDE3FGHIRWY/LB1

Departure

Time 2026-05-03 20:24
Airport Berlin Brandenburg Airport (EDDB)

Arrival

Time 2026-05-03 21:03
Airport Malmö Sturup Airport (ESMS)
Time Latitude Longitude Altitude Speed Heading
2026-05-03 20:15 52.36115 13.51234 155 ft 0 kts 339°
2026-05-03 20:16 52.36107 13.51238 155 ft 2 kts 339°
2026-05-03 20:16 52.36091 13.51249 155 ft 3 kts 339°
2026-05-03 20:17 52.36075 13.51260 155 ft 2 kts 348°
2026-05-03 20:17 52.36059 13.51264 155 ft 2 kts 13°
2026-05-03 20:17 52.36046 13.51251 155 ft 1 kts 66°
2026-05-03 20:17 52.36046 13.51250 155 ft 0 kts 66°
2026-05-03 20:19 52.36047 13.51254 155 ft 2 kts 68°
2026-05-03 20:19 52.36055 13.51310 156 ft 8 kts 76°
2026-05-03 20:20 52.36073 13.51427 155 ft 12 kts 76°
2026-05-03 20:20 52.36098 13.51578 155 ft 15 kts 74°
2026-05-03 20:20 52.36131 13.51747 155 ft 7 kts 74°
2026-05-03 20:20 52.36110 13.51831 154 ft 11 kts 131°
2026-05-03 20:21 52.36093 13.51971 152 ft 15 kts 74°
2026-05-03 20:21 52.36072 13.52130 151 ft 17 kts 143°
2026-05-03 20:21 52.35975 13.52193 154 ft 8 kts 160°
2026-05-03 20:21 52.35947 13.52212 155 ft 3 kts 158°
2026-05-03 20:22 52.35905 13.52240 157 ft 7 kts 159°
2026-05-03 20:22 52.35850 13.52250 158 ft 9 kts 191°
2026-05-03 20:22 52.35806 13.52177 158 ft 8 kts 252°
2026-05-03 20:22 52.35803 13.52165 158 ft 0 kts 252°
2026-05-03 20:23 52.35790 13.52101 159 ft 29 kts 250°
2026-05-03 20:23 52.35632 13.51427 157 ft 95 kts 249°
2026-05-03 20:23 52.35332 13.50150 157 ft 144 kts 249°
2026-05-03 20:24 52.34940 13.48442 356 ft 167 kts 250°
2026-05-03 20:24 52.34564 13.46655 973 ft 167 kts 252°
2026-05-03 20:24 52.34117 13.44892 1611 ft 170 kts 244°
2026-05-03 20:24 52.33441 13.43245 2155 ft 178 kts 236°
2026-05-03 20:25 52.32625 13.41633 2648 ft 191 kts 231°
2026-05-03 20:25 52.31676 13.39998 3080 ft 207 kts 228°
2026-05-03 20:25 52.30601 13.38245 3442 ft 229 kts 226°
2026-05-03 20:25 52.29349 13.36453 3948 ft 249 kts 216°
2026-05-03 20:26 52.27733 13.35195 4551 ft 267 kts 195°
2026-05-03 20:26 52.25846 13.34906 5230 ft 280 kts 175°
2026-05-03 20:26 52.23974 13.35889 5959 ft 291 kts 147°
2026-05-03 20:26 52.22646 13.38352 6701 ft 302 kts 117°
2026-05-03 20:27 52.22249 13.41737 7482 ft 314 kts 88°
2026-05-03 20:27 52.22955 13.45126 8282 ft 323 kts 57°
2026-05-03 20:27 52.24523 13.47740 9151 ft 325 kts 36°
2026-05-03 20:27 52.26515 13.49450 10035 ft 325 kts 18°
2026-05-03 20:28 52.28706 13.50288 10832 ft 324 kts
2026-05-03 20:28 52.30971 13.50895 11244 ft 341 kts 11°
2026-05-03 20:28 52.33345 13.51901 11389 ft 364 kts 15°
2026-05-03 20:28 52.35834 13.53169 11518 ft 386 kts 17°
2026-05-03 20:29 52.38458 13.54561 11647 ft 405 kts 17°
2026-05-03 20:29 52.41192 13.55969 11971 ft 417 kts 15°
2026-05-03 20:29 52.43989 13.57340 12545 ft 422 kts 14°
2026-05-03 20:29 52.46827 13.58662 13155 ft 426 kts 14°
2026-05-03 20:30 52.49698 13.59949 13773 ft 430 kts 13°
2026-05-03 20:30 52.52603 13.61227 14333 ft 434 kts 13°
2026-05-03 20:30 52.55528 13.62512 14871 ft 437 kts 13°
2026-05-03 20:30 52.58477 13.63817 15392 ft 441 kts 13°
2026-05-03 20:31 52.61450 13.65149 15905 ft 444 kts 13°
2026-05-03 20:31 52.64435 13.66501 16421 ft 447 kts 13°
2026-05-03 20:31 52.67447 13.67871 16912 ft 450 kts 13°
2026-05-03 20:31 52.70480 13.69260 17396 ft 454 kts 13°
2026-05-03 20:32 52.73527 13.70658 17859 ft 457 kts 13°
2026-05-03 20:32 52.76601 13.72060 18300 ft 460 kts 13°
2026-05-03 20:32 52.79696 13.73472 18706 ft 462 kts 13°
2026-05-03 20:32 52.82802 13.74894 19106 ft 465 kts 13°
2026-05-03 20:33 52.85933 13.76333 19508 ft 468 kts 13°
2026-05-03 20:33 52.89078 13.77783 19898 ft 471 kts 13°
2026-05-03 20:33 52.92240 13.79242 20279 ft 473 kts 13°
2026-05-03 20:33 52.95423 13.80712 20677 ft 476 kts 13°
2026-05-03 20:34 52.98576 13.82167 21039 ft 478 kts 13°
2026-05-03 20:34 53.01786 13.83646 21385 ft 480 kts 13°
2026-05-03 20:34 53.05011 13.85131 21698 ft 482 kts 13°
2026-05-03 20:34 53.08254 13.86627 21992 ft 485 kts 13°
2026-05-03 20:35 53.11507 13.88133 22291 ft 487 kts 13°
2026-05-03 20:35 53.14776 13.89652 22580 ft 489 kts 13°
2026-05-03 20:35 53.18104 13.90827 22914 ft 488 kts
2026-05-03 20:35 53.21473 13.91222 23331 ft 485 kts 358°
2026-05-03 20:36 53.24846 13.91318 23714 ft 484 kts 358°
2026-05-03 20:36 53.28211 13.91419 24093 ft 483 kts 358°
2026-05-03 20:36 53.31572 13.91524 24490 ft 482 kts 358°
2026-05-03 20:36 53.34919 13.91634 24900 ft 481 kts 358°
2026-05-03 20:37 53.38260 13.91746 25336 ft 479 kts 358°
2026-05-03 20:37 53.41591 13.91861 25779 ft 478 kts 358°
2026-05-03 20:37 53.44909 13.91974 26226 ft 476 kts 358°
2026-05-03 20:37 53.48219 13.92081 26675 ft 475 kts 358°
2026-05-03 20:38 53.51517 13.92186 27136 ft 473 kts 358°
2026-05-03 20:38 53.54806 13.92289 27601 ft 472 kts 358°
2026-05-03 20:38 53.58093 13.92393 27849 ft 472 kts 358°
2026-05-03 20:38 53.61394 13.92496 27897 ft 478 kts 358°
2026-05-03 20:39 53.64751 13.92656 27893 ft 486 kts 359°
2026-05-03 20:39 53.68096 13.92974 27893 ft 489 kts
2026-05-03 20:39 53.71542 13.93428 27892 ft 491 kts
2026-05-03 20:39 53.74902 13.93934 27893 ft 491 kts
2026-05-03 20:40 53.78308 13.94457 27891 ft 492 kts
2026-05-03 20:40 53.81714 13.94955 27890 ft 492 kts
2026-05-03 20:40 53.85124 13.95416 27887 ft 491 kts
2026-05-03 20:40 53.88535 13.95849 27885 ft 493 kts
2026-05-03 20:41 53.91976 13.96270 27885 ft 497 kts
2026-05-03 20:41 53.95434 13.96690 27891 ft 499 kts
2026-05-03 20:41 53.98897 13.97175 27883 ft 500 kts
2026-05-03 20:41 54.02359 13.97763 27884 ft 501 kts
2026-05-03 20:42 54.05823 13.98427 27882 ft 501 kts
2026-05-03 20:42 54.09284 13.99127 27882 ft 501 kts
2026-05-03 20:42 54.12743 13.99823 27882 ft 501 kts
2026-05-03 20:42 54.16203 14.00492 27881 ft 499 kts
2026-05-03 20:43 54.19644 14.01136 27890 ft 496 kts
2026-05-03 20:43 54.23073 14.01764 27880 ft 495 kts
2026-05-03 20:43 54.26496 14.02381 27877 ft 495 kts
2026-05-03 20:43 54.29919 14.02998 27876 ft 495 kts
2026-05-03 20:44 54.33343 14.03384 27638 ft 490 kts 354°
2026-05-03 20:44 54.36653 14.02555 26959 ft 474 kts 342°
2026-05-03 20:44 54.39853 14.01169 26189 ft 475 kts 342°
2026-05-03 20:44 54.43056 13.99750 25464 ft 477 kts 341°
2026-05-03 20:45 54.46278 13.98310 24633 ft 480 kts 341°
2026-05-03 20:45 54.49517 13.96865 23829 ft 483 kts 341°
2026-05-03 20:45 54.52780 13.95420 22931 ft 486 kts 342°
2026-05-03 20:45 54.56066 13.93976 21974 ft 483 kts 342°
2026-05-03 20:46 54.59251 13.92591 21066 ft 465 kts 342°
2026-05-03 20:46 54.62356 13.91239 20187 ft 456 kts 341°
2026-05-03 20:46 54.65408 13.89902 19314 ft 449 kts 341°
2026-05-03 20:46 54.68417 13.88577 18488 ft 443 kts 341°
2026-05-03 20:47 54.71386 13.87262 17596 ft 438 kts 341°
2026-05-03 20:47 54.74280 13.85976 16702 ft 434 kts 341°
2026-05-03 20:47 54.77245 13.84650 15793 ft 434 kts 341°
2026-05-03 20:47 54.80169 13.83342 14930 ft 434 kts 341°
2026-05-03 20:48 54.83087 13.82038 14078 ft 433 kts 341°
2026-05-03 20:48 54.85950 13.80761 13583 ft 425 kts 341°
2026-05-03 20:48 54.88773 13.79508 13312 ft 415 kts 340°
2026-05-03 20:48 54.91557 13.78268 13041 ft 412 kts 340°
2026-05-03 20:49 54.94333 13.77023 12786 ft 411 kts 340°
2026-05-03 20:49 54.97094 13.75778 12528 ft 409 kts 340°
2026-05-03 20:49 54.99850 13.74531 12290 ft 410 kts 340°
2026-05-03 20:49 55.02607 13.73286 12038 ft 408 kts 340°
2026-05-03 20:50 55.05350 13.72049 11669 ft 405 kts 340°
2026-05-03 20:50 55.08073 13.70819 11295 ft 403 kts 340°
2026-05-03 20:50 55.10782 13.69598 10916 ft 402 kts 340°
2026-05-03 20:50 55.12605 13.68775 10665 ft 400 kts 340°
2026-05-03 20:51 55.15259 13.67579 10314 ft 399 kts 340°
2026-05-03 20:51 55.17940 13.66367 9954 ft 397 kts 340°
2026-05-03 20:51 55.20607 13.65153 9583 ft 396 kts 340°
2026-05-03 20:51 55.23265 13.63941 9187 ft 394 kts 340°
2026-05-03 20:52 55.25910 13.62736 8796 ft 391 kts 340°
2026-05-03 20:52 55.28525 13.61543 8411 ft 383 kts 340°
2026-05-03 20:52 55.31082 13.60376 8028 ft 378 kts 340°
2026-05-03 20:52 55.33618 13.59213 7652 ft 375 kts 341°
2026-05-03 20:53 55.36137 13.58054 7281 ft 374 kts 341°
2026-05-03 20:53 55.38624 13.56912 6923 ft 365 kts 341°
2026-05-03 20:53 55.41059 13.55845 6550 ft 358 kts 345°
2026-05-03 20:53 55.43523 13.55318 6185 ft 353 kts 351°
2026-05-03 20:54 55.45942 13.54881 5803 ft 346 kts 351°
2026-05-03 20:54 55.50652 13.54031 5072 ft 334 kts 351°
2026-05-03 20:54 55.52922 13.53624 4991 ft 320 kts 351°
2026-05-03 20:55 55.55078 13.53239 5001 ft 303 kts 351°
2026-05-03 20:55 55.57131 13.52869 5002 ft 293 kts 351°
2026-05-03 20:55 55.59159 13.52494 5001 ft 293 kts 351°
2026-05-03 20:55 55.61186 13.52114 5001 ft 293 kts 351°
2026-05-03 20:56 55.63183 13.51742 5002 ft 282 kts 351°
2026-05-03 20:56 55.65084 13.51392 4995 ft 267 kts 350°
2026-05-03 20:56 55.66883 13.51063 4994 ft 254 kts 350°
2026-05-03 20:56 55.68644 13.50738 4807 ft 253 kts 350°
2026-05-03 20:57 55.70382 13.50416 4608 ft 250 kts 350°
2026-05-03 20:57 55.72099 13.50008 4396 ft 247 kts 341°
2026-05-03 20:57 55.73655 13.48846 4201 ft 239 kts 322°
2026-05-03 20:57 55.74892 13.46960 3995 ft 232 kts 303°
2026-05-03 20:58 55.75740 13.44582 3800 ft 225 kts 287°
2026-05-03 20:58 55.76147 13.41956 3599 ft 217 kts 267°
2026-05-03 20:58 55.75933 13.39377 3402 ft 209 kts 243°
2026-05-03 20:58 55.75147 13.37273 3202 ft 204 kts 220°
2026-05-03 20:59 55.73973 13.35951 3005 ft 204 kts 201°
2026-05-03 20:59 55.72660 13.34964 2805 ft 206 kts 202°
2026-05-03 20:59 55.71268 13.34174 2610 ft 216 kts 187°
2026-05-03 20:59 55.69764 13.34261 2500 ft 216 kts 174°
2026-05-03 21:00 55.68308 13.34573 2478 ft 204 kts 174°
2026-05-03 21:00 55.67372 13.34776 2487 ft 198 kts 174°
2026-05-03 21:00 55.65613 13.35146 2356 ft 188 kts 174°
2026-05-03 21:00 55.64335 13.35411 2108 ft 181 kts 174°
2026-05-03 21:01 55.63138 13.35660 1881 ft 165 kts 174°
2026-05-03 21:01 55.62067 13.35881 1689 ft 148 kts 174°
2026-05-03 21:01 55.61069 13.36086 1487 ft 142 kts 173°
2026-05-03 21:01 55.60096 13.36286 1305 ft 141 kts 173°
2026-05-03 21:02 55.59131 13.36489 1111 ft 139 kts 173°
2026-05-03 21:02 55.58168 13.36678 931 ft 140 kts 173°
2026-05-03 21:02 55.57201 13.36873 757 ft 138 kts 172°
2026-05-03 21:02 55.56249 13.37077 565 ft 139 kts 171°
2026-05-03 21:03 55.55284 13.37283 377 ft 139 kts 172°
2026-05-03 21:03 55.54338 13.37474 243 ft 128 kts 171°
2026-05-03 21:03 55.53602 13.37629 238 ft 82 kts 173°
2026-05-03 21:03 55.53206 13.37708 239 ft 33 kts 174°
2026-05-03 21:04 55.53048 13.37734 241 ft 12 kts 174°
2026-05-03 21:04 55.52980 13.37659 237 ft 16 kts 250°
2026-05-03 21:04 55.52988 13.37484 233 ft 11 kts 306°
2026-05-03 21:04 55.53076 13.37436 232 ft 17 kts 353°
2026-05-03 21:05 55.53221 13.37410 232 ft 23 kts 354°
2026-05-03 21:05 55.53388 13.37378 232 ft 25 kts 353°
2026-05-03 21:05 55.53573 13.37340 233 ft 28 kts 353°
2026-05-03 21:05 55.53772 13.37299 231 ft 30 kts 353°
2026-05-03 21:06 55.53955 13.37265 232 ft 27 kts 353°
2026-05-03 21:06 55.54133 13.37226 233 ft 14 kts 350°
2026-05-03 21:06 55.54190 13.37096 231 ft 17 kts 261°
2026-05-03 21:06 55.54169 13.36872 231 ft 20 kts 262°
2026-05-03 21:07 55.54150 13.36672 233 ft 11 kts 237°
2026-05-03 21:07 55.54102 13.36664 231 ft 4 kts 169°
2026-05-03 21:07 55.54086 13.36669 231 ft 1 kts 171°